User: anonymous   Login
Location: Unspecified
(30.2686°N, 0.0000°E)
Time: 04:49:50
(UTC+00:00)
Language:

Orbcomm D5 (FM33) - Orbit

View from above orbital plane
View from above orbital plane
View from above satellite
View from above satellite

Ground track
Ground track

The orbit is defined by the following mean orbital elements,

1 25983U          26087.94713082 +.00000000 +00000-0 +36531-3 0 00008
2 25983  45.0278  84.2474 0007115  41.7874 318.3518 14.40829030    09
Epoch (UTC): 28 March 2026 22:43:52
Eccentricity: 0.0007115
inclination: 45.0278°
perigee height: 751 km
apogee height: 761 km
right ascension of ascending node: 84.2474°
argument of perigee: 41.7874°
revolutions per day: 14.40829030
mean anomaly at epoch: 318.3518°

The dashed part of the orbit path shows where the satellite is in the earth's shadow,  

DLR